Weather History for Lancaster, CA

Change the Weather History Date:

Monday, May 13, 2013

  Actual Average Record
Temperature  
Mean Temperature 81 °F 68 °F  
Max Temperature 99 °F 82 °F 99 °F (2013)
Min Temperature 62 °F 53 °F 38 °F (1967)
Degree Days  
Heating Degree Days 0    
Month to date heating degree days 29  
Since 1 July heating degree days 2714  
Cooling Degree Days 16    
Month to date cooling degree days 61  
Year to date cooling degree days 151  
Growing Degree Days 32 (Base 50)    
Moisture  
Dew Point 36 °F    
Average Humidity 26    
Maximum Humidity 42    
Minimum Humidity 9    
Precipitation  
Precipitation 0.00 in 0.00 in 0.16 in (1998)
Month to date precipitation 0.15 0.05  
Year to date precipitation 1.10 4.82  
Since 1 July precipitation 1.26 7.29  
Snow  
Snow 0.00 in - 0.00 in ()
Month to date snowfall 0.0  
Since 1 July snowfall 0.0  
Snow Depth 0.00 in    
Sea Level Pressure  
Sea Level Pressure 29.96 in    
Wind  
Wind Speed 8 mph (WSW)    
Max Wind Speed 23 mph    
Max Gust Speed 31 mph    
Visibility 10 miles    
Events      
T = Trace of Precipitation, MM = Missing Value Source: NWS Daily Summary

Daily Weather History Graph

Daily Weather History Graph

Search for Another Location

Airport:

Trip Planner

Search our weather history database for the weather conditions in past years. The results will help you decide how hot, cold, wet, or windy it might be!

Date:

Astronomy

May. 13, 2013 Rise Set
Actual Time 5:51 AM PDT 7:47 PM PDT
Civil Twilight 5:23 AM PDT 8:15 PM PDT
Nautical Twilight 4:49 AM PDT 8:49 PM PDT
Astronomical Twilight 4:13 AM PDT 9:25 PM PDT
Moon 8:42 AM PDT (5/13) 11:00 PM PDT (5/13)
Length of Visible Light 14h 52m
Length of Day
13h 56m
Waxing Crescent, 13% of the Moon is Illuminated
May 13
Waxing Crescent
May 17
First Quarter
May 24
Full
May 31
Last Quarter
Jun 8
New

Hourly Weather History & Observations

Time (PDT) Temp. Dew Point Humidity Pressure Visibility Wind Dir Wind Speed Gust Speed Precip Events Conditions
12:56 AM 78.1 °F 39.0 °F 25% 29.99 in 10.0 mi West 11.5 mph - N/A   Clear
1:56 AM 78.1 °F 44.1 °F 30% 29.99 in 10.0 mi West 12.7 mph - N/A   Clear
2:56 AM 73.0 °F 44.1 °F 35% 29.99 in 10.0 mi West 5.8 mph - N/A   Clear
3:56 AM 73.9 °F 41.0 °F 30% 29.99 in 10.0 mi SW 3.5 mph - N/A   Clear
4:56 AM 66.9 °F 41.0 °F 39% 29.99 in 10.0 mi West 4.6 mph - N/A   Clear
5:56 AM 66.0 °F 42.1 °F 42% 30.01 in 10.0 mi ESE 3.5 mph - N/A   Clear
6:56 AM 68.0 °F 41.0 °F 37% 30.03 in 10.0 mi Calm Calm - N/A   Clear
7:56 AM 75.0 °F 41.0 °F 29% 30.03 in 10.0 mi Calm Calm - N/A   Clear
8:56 AM 82.9 °F 39.0 °F 21% 30.02 in 10.0 mi Calm Calm - N/A   Clear
9:56 AM 89.1 °F 36.0 °F 15% 30.01 in 10.0 mi Calm Calm - N/A   Clear
10:56 AM 93.0 °F 33.1 °F 12% 29.99 in 10.0 mi SSE 5.8 mph - N/A   Clear
11:56 AM 96.1 °F 28.0 °F 9% 29.98 in 10.0 mi Calm Calm - N/A   Clear
1:56 PM 98.1 °F 30.0 °F 9% 29.95 in 10.0 mi South 12.7 mph 25.3 mph N/A   Clear
2:56 PM 97.0 °F 30.9 °F 10% 29.94 in 10.0 mi West 10.4 mph 20.7 mph N/A   Clear
3:56 PM 97.0 °F 30.0 °F 9% 29.92 in 10.0 mi West 6.9 mph 25.3 mph N/A   Clear
4:56 PM 97.0 °F 28.0 °F 9% 29.91 in 10.0 mi WSW 20.7 mph 26.5 mph N/A   Clear
5:56 PM 95.0 °F 26.1 °F 9% 29.91 in 10.0 mi WSW 23.0 mph - N/A   Clear
6:56 PM 91.9 °F 27.0 °F 10% 29.92 in 10.0 mi WSW 19.6 mph - N/A   Clear
7:56 PM 87.1 °F 32.0 °F 14% 29.92 in 10.0 mi WSW 13.8 mph - N/A   Clear
8:56 PM 82.0 °F 37.0 °F 20% 29.92 in 10.0 mi WSW 11.5 mph - N/A   Clear
9:56 PM 78.1 °F 36.0 °F 22% 29.93 in 10.0 mi WSW 8.1 mph - N/A   Clear
10:56 PM 75.0 °F 35.1 °F 23% 29.93 in 10.0 mi South 3.5 mph - N/A   Clear
11:56 PM 75.0 °F 35.1 °F 23% 29.91 in 10.0 mi WSW 8.1 mph - N/A   Clear